Time,TemperatureF,DewpointF,PressureIn,WindDirection,WindDirectionDegrees,WindSpeedMPH,WindSpeedGustMPH,Humidity,HourlyPrecipIn,Conditions,Clouds,dailyrainin,SoftwareType,DateUTC
2013-05-20 00:01:00,78.0,71.3,30.04,East,90,3.0,10.0,79,0.00,,,0.00,Rainwise IP-100,2013-05-20 04:01:00,
2013-05-20 00:06:00,77.0,70.0,30.04,East,90,4.0,7.0,79,0.00,,,0.00,Rainwise IP-100,2013-05-20 04:06:00,
2013-05-20 00:11:00,77.0,70.0,30.04,ESE,112,3.0,9.0,79,0.00,,,0.00,Rainwise IP-100,2013-05-20 04:11:00,
2013-05-20 00:16:00,77.0,69.3,30.04,SE,135,6.0,9.0,77,0.00,,,0.00,Rainwise IP-100,2013-05-20 04:16:00,
2013-05-20 00:21:00,78.0,70.0,30.04,SE,135,4.0,10.0,76,0.00,,,0.00,Rainwise IP-100,2013-05-20 04:21:00,
2013-05-20 00:26:00,78.0,70.5,30.04,SSE,157,7.0,10.0,77,0.00,,,0.00,Rainwise IP-100,2013-05-20 04:26:00,
2013-05-20 00:31:00,77.0,69.0,30.03,SE,135,3.0,7.0,76,0.00,,,0.00,Rainwise IP-100,2013-05-20 04:31:00,
2013-05-20 00:36:00,77.0,69.0,30.03,ESE,112,5.0,10.0,76,0.00,,,0.00,Rainwise IP-100,2013-05-20 04:36:00,
2013-05-20 00:42:00,77.0,69.0,30.03,East,90,4.0,10.0,76,0.00,,,0.00,Rainwise IP-100,2013-05-20 04:42:00,
2013-05-20 00:47:00,77.0,69.3,30.03,East,90,6.0,10.0,77,0.00,,,0.00,Rainwise IP-100,2013-05-20 04:47:00,
2013-05-20 00:52:00,77.0,69.7,30.03,East,90,6.0,12.0,78,0.00,,,0.00,Rainwise IP-100,2013-05-20 04:52:00,
2013-05-20 00:57:00,77.0,70.0,30.03,East,90,4.0,10.0,79,0.00,,,0.00,Rainwise IP-100,2013-05-20 04:57:00,
2013-05-20 01:02:00,78.0,71.3,30.03,SE,135,2.0,10.0,79,0.00,,,0.00,Rainwise IP-100,2013-05-20 05:02:00,
2013-05-20 01:07:00,78.0,71.0,30.03,East,90,4.0,12.0,78,0.00,,,0.00,Rainwise IP-100,2013-05-20 05:07:00,
2013-05-20 01:12:00,78.0,71.3,30.03,East,90,2.0,7.0,79,0.00,,,0.00,Rainwise IP-100,2013-05-20 05:12:00,
2013-05-20 01:18:00,78.0,71.3,30.03,ENE,67,5.0,12.0,79,0.00,,,0.00,Rainwise IP-100,2013-05-20 05:18:00,
2013-05-20 01:23:00,78.0,71.3,30.02,ESE,112,5.0,9.0,79,0.00,,,0.00,Rainwise IP-100,2013-05-20 05:23:00,
2013-05-20 01:28:00,78.0,71.3,30.02,East,90,6.0,7.0,79,0.00,,,0.00,Rainwise IP-100,2013-05-20 05:28:00,
2013-05-20 01:33:00,78.0,71.3,30.02,SSE,157,0.0,9.0,79,0.00,,,0.00,Rainwise IP-100,2013-05-20 05:33:00,
2013-05-20 01:38:00,78.0,71.3,30.02,SE,135,1.0,11.0,79,0.00,,,0.00,Rainwise IP-100,2013-05-20 05:38:00,
2013-05-20 01:43:00,78.0,72.0,30.02,SE,135,9.0,9.0,81,0.00,,,0.00,Rainwise IP-100,2013-05-20 05:43:00,
2013-05-20 01:48:00,78.0,72.0,30.02,SE,135,7.0,10.0,81,0.00,,,0.00,Rainwise IP-100,2013-05-20 05:48:00,
2013-05-20 01:53:00,78.0,72.0,30.01,ENE,67,3.0,12.0,81,0.00,,,0.00,Rainwise IP-100,2013-05-20 05:53:00,
2013-05-20 01:59:00,78.0,72.0,30.01,SE,135,6.0,11.0,81,0.00,,,0.00,Rainwise IP-100,2013-05-20 05:59:00,
2013-05-20 02:04:00,78.0,71.7,30.01,SSE,157,9.0,12.0,80,0.00,,,0.00,Rainwise IP-100,2013-05-20 06:04:00,
2013-05-20 02:09:00,78.0,72.0,30.00,SE,135,9.0,9.0,81,0.00,,,0.00,Rainwise IP-100,2013-05-20 06:09:00,
2013-05-20 02:14:00,78.0,72.0,30.00,SSE,157,3.0,11.0,81,0.00,,,0.00,Rainwise IP-100,2013-05-20 06:14:00,
2013-05-20 02:19:00,78.0,71.7,30.00,South,180,8.0,14.0,80,0.00,,,0.00,Rainwise IP-100,2013-05-20 06:19:00,
2013-05-20 02:24:00,78.0,71.3,30.00,SE,135,5.0,12.0,79,0.00,,,0.00,Rainwise IP-100,2013-05-20 06:24:00,
2013-05-20 02:29:00,78.0,71.7,30.00,SE,135,4.0,13.0,80,0.00,,,0.00,Rainwise IP-100,2013-05-20 06:29:00,
2013-05-20 02:35:00,78.0,72.0,30.00,SE,135,6.0,12.0,81,0.00,,,0.00,Rainwise IP-100,2013-05-20 06:35:00,
2013-05-20 02:40:00,78.0,71.3,30.00,SE,135,10.0,15.0,79,0.00,,,0.00,Rainwise IP-100,2013-05-20 06:40:00,
2013-05-20 02:45:00,78.0,71.7,30.00,ESE,112,3.0,12.0,80,0.00,,,0.00,Rainwise IP-100,2013-05-20 06:45:00,
2013-05-20 02:50:00,78.0,71.3,29.99,ESE,112,8.0,12.0,79,0.00,,,0.00,Rainwise IP-100,2013-05-20 06:50:00,
2013-05-20 02:55:00,78.0,71.7,29.99,East,90,10.0,12.0,80,0.00,,,0.00,Rainwise IP-100,2013-05-20 06:55:00,
2013-05-20 03:00:00,78.0,71.7,29.99,ESE,112,4.0,13.0,80,0.00,,,0.00,Rainwise IP-100,2013-05-20 07:00:00,
2013-05-20 03:05:00,78.0,71.0,29.99,SE,135,7.0,11.0,78,0.00,,,0.00,Rainwise IP-100,2013-05-20 07:05:00,
2013-05-20 03:10:00,78.0,70.5,29.99,SE,135,11.0,12.0,77,0.00,,,0.00,Rainwise IP-100,2013-05-20 07:10:00,
2013-05-20 03:16:00,78.0,70.0,29.99,SE,135,10.0,16.0,76,0.00,,,0.00,Rainwise IP-100,2013-05-20 07:16:00,
2013-05-20 03:21:00,78.0,71.0,29.99,SE,135,4.0,13.0,78,0.00,,,0.00,Rainwise IP-100,2013-05-20 07:21:00,
2013-05-20 03:26:00,78.0,71.0,29.99,SE,135,10.0,15.0,78,0.00,,,0.00,Rainwise IP-100,2013-05-20 07:26:00,
2013-05-20 03:31:00,78.0,71.0,29.99,SE,135,9.0,13.0,78,0.00,,,0.00,Rainwise IP-100,2013-05-20 07:31:00,
2013-05-20 03:36:00,78.0,71.0,29.98,SE,135,6.0,15.0,78,0.00,,,0.00,Rainwise IP-100,2013-05-20 07:36:00,
2013-05-20 03:41:00,78.0,71.0,29.98,SE,135,9.0,13.0,78,0.00,,,0.00,Rainwise IP-100,2013-05-20 07:41:00,
2013-05-20 03:46:00,78.0,71.0,29.98,SE,135,4.0,13.0,78,0.00,,,0.00,Rainwise IP-100,2013-05-20 07:46:00,
2013-05-20 03:52:00,78.0,71.3,29.98,SE,135,6.0,13.0,79,0.00,,,0.00,Rainwise IP-100,2013-05-20 07:52:00,
2013-05-20 03:57:00,78.0,71.3,29.98,SE,135,6.0,15.0,79,0.00,,,0.00,Rainwise IP-100,2013-05-20 07:57:00,
2013-05-20 04:02:00,78.0,71.3,29.98,SE,135,7.0,13.0,79,0.00,,,0.00,Rainwise IP-100,2013-05-20 08:02:00,
2013-05-20 04:07:00,78.0,71.3,29.98,SE,135,12.0,13.0,79,0.00,,,0.00,Rainwise IP-100,2013-05-20 08:07:00,
2013-05-20 04:12:00,78.0,71.3,29.98,SE,135,6.0,13.0,79,0.00,,,0.00,Rainwise IP-100,2013-05-20 08:12:00,
2013-05-20 04:17:00,78.0,71.3,29.98,SSE,157,7.0,16.0,79,0.00,,,0.00,Rainwise IP-100,2013-05-20 08:17:00,
2013-05-20 04:22:00,78.0,71.3,29.98,ESE,112,10.0,13.0,79,0.00,,,0.00,Rainwise IP-100,2013-05-20 08:22:00,
2013-05-20 04:27:00,78.0,71.3,29.98,SE,135,12.0,15.0,79,0.00,,,0.00,Rainwise IP-100,2013-05-20 08:27:00,
2013-05-20 04:33:00,78.0,71.7,29.98,East,90,7.0,12.0,80,0.00,,,0.00,Rainwise IP-100,2013-05-20 08:33:00,
2013-05-20 04:38:00,78.0,71.3,29.98,East,90,8.0,12.0,79,0.00,,,0.00,Rainwise IP-100,2013-05-20 08:38:00,
2013-05-20 04:43:00,78.0,72.0,29.98,SE,135,12.0,13.0,81,0.00,,,0.00,Rainwise IP-100,2013-05-20 08:43:00,
2013-05-20 04:48:00,78.0,72.0,29.98,SE,135,6.0,16.0,81,0.00,,,0.00,Rainwise IP-100,2013-05-20 08:48:00,
2013-05-20 04:53:00,78.0,72.0,29.98,SE,135,9.0,14.0,81,0.00,,,0.00,Rainwise IP-100,2013-05-20 08:53:00,
2013-05-20 04:58:00,77.0,70.0,29.98,East,90,7.0,13.0,79,0.00,,,0.00,Rainwise IP-100,2013-05-20 08:58:00,
2013-05-20 05:03:00,77.0,70.0,29.98,East,90,4.0,12.0,79,0.00,,,0.00,Rainwise IP-100,2013-05-20 09:03:00,
2013-05-20 05:09:00,77.0,69.3,29.98,East,90,8.0,13.0,77,0.00,,,0.00,Rainwise IP-100,2013-05-20 09:09:00,
2013-05-20 05:14:00,78.0,71.0,29.98,SE,135,10.0,16.0,78,0.00,,,0.00,Rainwise IP-100,2013-05-20 09:14:00,
2013-05-20 05:19:00,78.0,71.3,29.98,ESE,112,7.0,12.0,79,0.00,,,0.00,Rainwise IP-100,2013-05-20 09:19:00,
2013-05-20 05:21:00,78.0,71.3,29.98,SE,135,5.0,12.0,79,0.00,,,0.00,Rainwise IP-100,2013-05-20 09:21:00,
2013-05-20 05:26:00,78.0,72.0,29.98,SE,135,6.0,13.0,81,0.00,,,0.00,Rainwise IP-100,2013-05-20 09:26:00,
2013-05-20 05:31:00,78.0,72.0,29.98,SE,135,6.0,12.0,81,0.00,,,0.00,Rainwise IP-100,2013-05-20 09:31:00,
2013-05-20 05:36:00,78.0,72.0,29.98,ESE,112,6.0,11.0,81,0.00,,,0.00,Rainwise IP-100,2013-05-20 09:36:00,
2013-05-20 05:41:00,78.0,72.0,29.98,ESE,112,1.0,10.0,81,0.00,,,0.00,Rainwise IP-100,2013-05-20 09:41:00,
2013-05-20 05:47:00,78.0,72.0,29.98,SE,135,4.0,10.0,81,0.00,,,0.00,Rainwise IP-100,2013-05-20 09:47:00,
2013-05-20 05:52:00,77.0,71.7,29.98,East,90,6.0,12.0,83,0.00,,,0.00,Rainwise IP-100,2013-05-20 09:52:00,
2013-05-20 05:57:00,78.0,72.7,29.98,SE,135,6.0,13.0,83,0.00,,,0.00,Rainwise IP-100,2013-05-20 09:57:00,
2013-05-20 06:02:00,78.0,72.7,29.98,ESE,112,9.0,12.0,83,0.00,,,0.00,Rainwise IP-100,2013-05-20 10:02:00,
2013-05-20 06:07:00,78.0,72.7,29.98,SE,135,6.0,14.0,83,0.00,,,0.00,Rainwise IP-100,2013-05-20 10:07:00,
2013-05-20 06:12:00,78.0,72.7,29.98,SSE,157,7.0,13.0,83,0.00,,,0.00,Rainwise IP-100,2013-05-20 10:12:00,
2013-05-20 06:17:00,78.0,72.7,29.97,SE,135,6.0,15.0,83,0.00,,,0.00,Rainwise IP-100,2013-05-20 10:17:00,
2013-05-20 06:22:00,78.0,71.3,29.98,SSE,157,11.0,12.0,79,0.00,,,0.00,Rainwise IP-100,2013-05-20 10:22:00,
2013-05-20 06:28:00,78.0,71.7,29.98,SE,135,8.0,12.0,80,0.00,,,0.00,Rainwise IP-100,2013-05-20 10:28:00,
2013-05-20 06:33:00,78.0,71.3,29.98,SE,135,6.0,10.0,79,0.00,,,0.00,Rainwise IP-100,2013-05-20 10:33:00,
2013-05-20 06:38:00,78.0,71.3,29.99,SE,135,2.0,13.0,79,0.00,,,0.00,Rainwise IP-100,2013-05-20 10:38:00,
2013-05-20 06:43:00,78.0,71.7,29.99,ESE,112,7.0,12.0,80,0.00,,,0.00,Rainwise IP-100,2013-05-20 10:43:00,
2013-05-20 06:48:00,78.0,71.7,29.99,SE,135,8.0,16.0,80,0.00,,,0.00,Rainwise IP-100,2013-05-20 10:48:00,
2013-05-20 06:53:00,78.0,72.3,30.00,ESE,112,10.0,15.0,82,0.00,,,0.00,Rainwise IP-100,2013-05-20 10:53:00,
2013-05-20 06:58:00,78.0,72.7,30.00,East,90,7.0,16.0,83,0.00,,,0.00,Rainwise IP-100,2013-05-20 10:58:00,
2013-05-20 07:04:00,78.0,72.3,30.00,SE,135,6.0,15.0,82,0.00,,,0.00,Rainwise IP-100,2013-05-20 11:04:00,
2013-05-20 07:09:00,78.0,72.0,30.00,SE,135,7.0,12.0,81,0.00,,,0.00,Rainwise IP-100,2013-05-20 11:09:00,
2013-05-20 07:14:00,78.0,72.0,30.00,SE,135,6.0,12.0,81,0.00,,,0.00,Rainwise IP-100,2013-05-20 11:14:00,
2013-05-20 07:19:00,78.0,71.3,30.01,SSE,157,5.0,13.0,79,0.00,,,0.00,Rainwise IP-100,2013-05-20 11:19:00,
2013-05-20 07:24:00,78.0,71.0,30.01,ESE,112,9.0,12.0,78,0.00,,,0.00,Rainwise IP-100,2013-05-20 11:24:00,
2013-05-20 07:29:00,78.0,71.7,30.01,SSE,157,9.0,13.0,80,0.00,,,0.00,Rainwise IP-100,2013-05-20 11:29:00,
2013-05-20 07:34:00,78.0,72.3,30.01,SE,135,6.0,17.0,82,0.00,,,0.00,Rainwise IP-100,2013-05-20 11:34:00,
2013-05-20 07:39:00,78.0,72.7,30.01,SE,135,7.0,10.0,83,0.00,,,0.00,Rainwise IP-100,2013-05-20 11:39:00,
2013-05-20 07:45:00,78.0,72.7,30.02,SSE,157,9.0,15.0,83,0.00,,,0.00,Rainwise IP-100,2013-05-20 11:45:00,
2013-05-20 07:50:00,78.0,72.7,30.02,SE,135,3.0,16.0,83,0.00,,,0.00,Rainwise IP-100,2013-05-20 11:50:00,
2013-05-20 07:55:00,78.0,72.7,30.02,SE,135,3.0,12.0,84,0.00,,,0.00,Rainwise IP-100,2013-05-20 11:55:00,
2013-05-20 08:00:00,78.0,73.0,30.02,South,180,5.0,13.0,85,0.00,,,0.00,Rainwise IP-100,2013-05-20 12:00:00,
2013-05-20 08:05:00,78.0,72.7,30.03,SE,135,10.0,15.0,84,0.00,,,0.00,Rainwise IP-100,2013-05-20 12:05:00,
2013-05-20 08:10:00,78.0,72.0,30.03,East,90,5.0,12.0,81,0.00,,,0.00,Rainwise IP-100,2013-05-20 12:10:00,
2013-05-20 08:15:00,78.0,72.0,30.03,SE,135,2.0,12.0,81,0.00,,,0.00,Rainwise IP-100,2013-05-20 12:15:00,
2013-05-20 08:21:00,79.0,72.0,30.03,SE,135,6.0,16.0,79,0.00,,,0.00,Rainwise IP-100,2013-05-20 12:21:00,
2013-05-20 08:26:00,79.0,72.0,30.04,ESE,112,5.0,17.0,79,0.00,,,0.00,Rainwise IP-100,2013-05-20 12:26:00,
2013-05-20 08:31:00,80.0,72.7,30.04,SSE,157,6.0,13.0,79,0.00,,,0.00,Rainwise IP-100,2013-05-20 12:31:00,
2013-05-20 08:36:00,80.0,72.3,30.04,South,180,6.0,10.0,78,0.00,,,0.00,Rainwise IP-100,2013-05-20 12:36:00,
2013-05-20 08:41:00,80.0,72.7,30.04,SE,135,5.0,15.0,79,0.00,,,0.00,Rainwise IP-100,2013-05-20 12:41:00,
2013-05-20 08:46:00,80.0,72.0,30.04,East,90,4.0,11.0,77,0.00,,,0.00,Rainwise IP-100,2013-05-20 12:46:00,
2013-05-20 08:51:00,80.0,71.3,30.04,South,180,6.0,15.0,75,0.00,,,0.00,Rainwise IP-100,2013-05-20 12:51:00,
2013-05-20 08:56:00,80.0,71.0,30.05,SE,135,6.0,13.0,74,0.00,,,0.00,Rainwise IP-100,2013-05-20 12:56:00,
2013-05-20 09:02:00,80.0,71.3,30.05,South,180,5.0,12.0,75,0.00,,,0.00,Rainwise IP-100,2013-05-20 13:02:00,
2013-05-20 09:07:00,79.0,71.0,30.05,ESE,112,6.0,14.0,76,0.00,,,0.00,Rainwise IP-100,2013-05-20 13:07:00,
2013-05-20 09:12:00,80.0,72.0,30.05,SE,135,7.0,13.0,77,0.00,,,0.00,Rainwise IP-100,2013-05-20 13:12:00,
2013-05-20 09:17:00,79.0,71.3,30.04,SE,135,7.0,15.0,77,0.00,,,0.00,Rainwise IP-100,2013-05-20 13:17:00,
2013-05-20 09:22:00,80.0,72.0,30.04,SSE,157,4.0,17.0,77,0.00,,,0.00,Rainwise IP-100,2013-05-20 13:22:00,
2013-05-20 09:27:00,79.0,71.0,30.05,ESE,112,13.0,16.0,76,0.00,,,0.00,Rainwise IP-100,2013-05-20 13:27:00,
2013-05-20 09:32:00,79.0,71.0,30.06,SSE,157,12.0,15.0,76,0.00,,,0.00,Rainwise IP-100,2013-05-20 13:32:00,
2013-05-20 09:38:00,79.0,70.0,30.06,South,180,6.0,15.0,74,0.00,,,0.00,Rainwise IP-100,2013-05-20 13:38:00,
2013-05-20 09:43:00,79.0,70.0,30.06,South,180,11.0,15.0,74,0.00,,,0.00,Rainwise IP-100,2013-05-20 13:43:00,
2013-05-20 09:48:00,78.0,69.7,30.05,SSE,157,9.0,12.0,75,0.00,,,0.00,Rainwise IP-100,2013-05-20 13:48:00,
2013-05-20 09:53:00,79.0,71.3,30.05,SE,135,6.0,9.0,77,0.00,,,0.00,Rainwise IP-100,2013-05-20 13:53:00,
2013-05-20 09:58:00,79.0,71.0,30.05,SSE,157,9.0,15.0,76,0.00,,,0.00,Rainwise IP-100,2013-05-20 13:58:00,
2013-05-20 10:03:00,80.0,71.7,30.04,SSE,157,7.0,14.0,76,0.00,,,0.00,Rainwise IP-100,2013-05-20 14:03:00,
2013-05-20 10:08:00,80.0,70.5,30.05,SE,135,8.0,14.0,73,0.00,,,0.00,Rainwise IP-100,2013-05-20 14:08:00,
2013-05-20 10:13:00,80.0,71.0,30.05,SSE,157,7.0,15.0,74,0.00,,,0.00,Rainwise IP-100,2013-05-20 14:13:00,
2013-05-20 10:19:00,79.0,70.0,30.05,ESE,112,7.0,17.0,74,0.00,,,0.00,Rainwise IP-100,2013-05-20 14:19:00,
2013-05-20 10:24:00,80.0,71.0,30.05,SE,135,6.0,16.0,74,0.00,,,0.00,Rainwise IP-100,2013-05-20 14:24:00,
2013-05-20 10:29:00,81.0,72.0,30.05,SE,135,9.0,14.0,74,0.00,,,0.00,Rainwise IP-100,2013-05-20 14:29:00,
2013-05-20 10:34:00,81.0,71.3,30.05,SE,135,9.0,13.0,72,0.00,,,0.00,Rainwise IP-100,2013-05-20 14:34:00,
2013-05-20 10:39:00,81.0,71.7,30.05,SE,135,12.0,15.0,73,0.00,,,0.00,Rainwise IP-100,2013-05-20 14:39:00,
2013-05-20 10:44:00,80.0,71.0,30.05,SE,135,11.0,17.0,74,0.00,,,0.00,Rainwise IP-100,2013-05-20 14:44:00,
2013-05-20 10:49:00,80.0,71.0,30.05,ESE,112,7.0,18.0,74,0.00,,,0.00,Rainwise IP-100,2013-05-20 14:49:00,
2013-05-20 10:55:00,80.0,71.0,30.05,South,180,5.0,13.0,74,0.00,,,0.00,Rainwise IP-100,2013-05-20 14:55:00,
2013-05-20 11:00:00,81.0,72.0,30.06,SSE,157,9.0,13.0,74,0.00,,,0.00,Rainwise IP-100,2013-05-20 15:00:00,
2013-05-20 11:05:00,83.0,72.0,30.06,ESE,112,6.0,12.0,69,0.00,,,0.00,Rainwise IP-100,2013-05-20 15:05:00,
2013-05-20 11:10:00,82.0,71.7,30.06,East,90,5.0,17.0,71,0.00,,,0.00,Rainwise IP-100,2013-05-20 15:10:00,
2013-05-20 11:15:00,81.0,71.0,30.06,East,90,7.0,16.0,71,0.00,,,0.00,Rainwise IP-100,2013-05-20 15:15:00,
2013-05-20 11:20:00,81.0,71.3,30.06,East,90,8.0,21.0,72,0.00,,,0.00,Rainwise IP-100,2013-05-20 15:20:00,
2013-05-20 11:25:00,81.0,71.3,30.06,SE,135,10.0,14.0,72,0.00,,,0.00,Rainwise IP-100,2013-05-20 15:25:00,
2013-05-20 11:30:00,81.0,71.3,30.06,SE,135,9.0,16.0,72,0.00,,,0.00,Rainwise IP-100,2013-05-20 15:30:00,
2013-05-20 11:36:00,81.0,71.3,30.07,SE,135,3.0,17.0,72,0.00,,,0.00,Rainwise IP-100,2013-05-20 15:36:00,
2013-05-20 11:41:00,80.0,71.0,30.07,SE,135,7.0,14.0,74,0.00,,,0.00,Rainwise IP-100,2013-05-20 15:41:00,
2013-05-20 11:46:00,80.0,71.7,30.06,SE,135,9.0,16.0,76,0.00,,,0.00,Rainwise IP-100,2013-05-20 15:46:00,
2013-05-20 11:51:00,79.0,71.0,30.06,SE,135,18.0,21.0,76,0.00,,,0.00,Rainwise IP-100,2013-05-20 15:51:00,
2013-05-20 11:56:00,79.0,70.5,30.06,SSE,157,7.0,18.0,75,0.00,,,0.00,Rainwise IP-100,2013-05-20 15:56:00,
2013-05-20 12:01:00,79.0,71.7,30.06,ESE,112,10.0,16.0,78,0.00,,,0.00,Rainwise IP-100,2013-05-20 16:01:00,
2013-05-20 12:06:00,79.0,72.0,30.05,South,180,6.0,17.0,79,0.00,,,0.00,Rainwise IP-100,2013-05-20 16:06:00,
2013-05-20 12:12:00,79.0,72.0,30.05,ESE,112,7.0,14.0,79,0.00,,,0.00,Rainwise IP-100,2013-05-20 16:12:00,
2013-05-20 12:17:00,79.0,72.0,30.04,SE,135,7.0,15.0,79,0.00,,,0.00,Rainwise IP-100,2013-05-20 16:17:00,
2013-05-20 12:22:00,79.0,71.7,30.04,SE,135,1.0,11.0,78,0.00,,,0.00,Rainwise IP-100,2013-05-20 16:22:00,
2013-05-20 12:27:00,79.0,71.7,30.04,East,90,7.0,10.0,78,0.00,,,0.00,Rainwise IP-100,2013-05-20 16:27:00,
2013-05-20 12:32:00,79.0,72.0,30.04,East,90,6.0,12.0,79,0.00,,,0.00,Rainwise IP-100,2013-05-20 16:32:00,
2013-05-20 12:37:00,79.0,71.7,30.04,ESE,112,7.0,11.0,78,0.00,,,0.00,Rainwise IP-100,2013-05-20 16:37:00,
2013-05-20 12:42:00,79.0,72.0,30.05,SE,135,5.0,12.0,79,0.00,,,0.00,Rainwise IP-100,2013-05-20 16:42:00,
2013-05-20 12:47:00,79.0,71.3,30.04,SSE,157,9.0,12.0,77,0.00,,,0.00,Rainwise IP-100,2013-05-20 16:47:00,
2013-05-20 12:53:00,78.0,71.3,30.04,SE,135,7.0,12.0,79,0.00,,,0.00,Rainwise IP-100,2013-05-20 16:53:00,
2013-05-20 12:58:00,78.0,70.0,30.04,SE,135,7.0,10.0,76,0.00,,,0.00,Rainwise IP-100,2013-05-20 16:58:00,
2013-05-20 13:03:00,78.0,71.3,30.04,SE,135,3.0,15.0,79,0.00,,,0.00,Rainwise IP-100,2013-05-20 17:03:00,
2013-05-20 13:08:00,77.0,71.7,30.03,SSE,157,10.0,17.0,83,0.00,,,0.00,Rainwise IP-100,2013-05-20 17:08:00,
2013-05-20 13:13:00,76.0,71.3,30.03,SE,135,7.0,18.0,86,0.06,,,0.01,Rainwise IP-100,2013-05-20 17:13:00,
2013-05-20 13:18:00,74.0,69.3,30.04,SSE,157,10.0,16.0,85,0.18,,,0.04,Rainwise IP-100,2013-05-20 17:18:00,
2013-05-20 13:23:00,73.0,69.3,30.03,South,180,9.0,13.0,88,0.24,,,0.05,Rainwise IP-100,2013-05-20 17:23:00,
2013-05-20 13:29:00,73.0,70.0,30.03,SE,135,6.0,13.0,90,0.18,,,0.06,Rainwise IP-100,2013-05-20 17:29:00,
2013-05-20 13:34:00,73.0,70.5,30.02,SSE,157,6.0,12.0,91,0.06,,,0.06,Rainwise IP-100,2013-05-20 17:34:00,
2013-05-20 13:39:00,73.0,70.5,30.02,South,180,4.0,10.0,91,0.06,,,0.07,Rainwise IP-100,2013-05-20 17:39:00,
2013-05-20 13:44:00,73.0,70.0,30.02,South,180,2.0,10.0,90,0.06,,,0.08,Rainwise IP-100,2013-05-20 17:44:00,
2013-05-20 13:49:00,73.0,70.5,30.02,SSE,157,1.0,6.0,91,0.06,,,0.08,Rainwise IP-100,2013-05-20 17:49:00,
2013-05-20 13:54:00,73.0,70.0,30.02,South,180,2.0,7.0,90,0.06,,,0.09,Rainwise IP-100,2013-05-20 17:54:00,
2013-05-20 13:59:00,73.0,70.5,30.02,SSE,157,4.0,5.0,91,0.06,,,0.09,Rainwise IP-100,2013-05-20 17:59:00,
2013-05-20 14:04:00,74.0,71.3,30.03,SW,225,2.0,5.0,91,0.00,,,0.10,Rainwise IP-100,2013-05-20 18:04:00,
2013-05-20 14:10:00,74.0,71.7,30.03,South,180,6.0,7.0,92,0.06,,,0.10,Rainwise IP-100,2013-05-20 18:10:00,
2013-05-20 14:15:00,75.0,72.3,30.03,WSW,247,2.0,8.0,91,0.06,,,0.10,Rainwise IP-100,2013-05-20 18:15:00,
2013-05-20 14:20:00,75.0,72.3,30.03,North,360,7.0,9.0,91,0.06,,,0.11,Rainwise IP-100,2013-05-20 18:20:00,
2013-05-20 14:25:00,74.0,71.3,30.03,SW,225,5.0,12.0,91,0.18,,,0.13,Rainwise IP-100,2013-05-20 18:25:00,
2013-05-20 14:30:00,73.0,70.5,30.03,North,360,6.0,12.0,92,0.24,,,0.16,Rainwise IP-100,2013-05-20 18:30:00,
2013-05-20 14:35:00,73.0,71.0,30.03,NW,315,5.0,9.0,93,0.24,,,0.18,Rainwise IP-100,2013-05-20 18:35:00,
2013-05-20 14:40:00,73.0,71.0,30.03,WNW,292,0.0,7.0,93,0.24,,,0.19,Rainwise IP-100,2013-05-20 18:40:00,
2013-05-20 14:46:00,73.0,71.3,30.02,North,360,8.0,8.0,94,0.18,,,0.20,Rainwise IP-100,2013-05-20 18:46:00,
2013-05-20 14:51:00,73.0,71.3,30.02,ESE,112,5.0,10.0,94,0.12,,,0.21,Rainwise IP-100,2013-05-20 18:51:00,
2013-05-20 14:56:00,73.0,71.3,30.01,East,90,5.0,9.0,94,0.18,,,0.23,Rainwise IP-100,2013-05-20 18:56:00,
2013-05-20 15:01:00,73.0,71.3,30.01,NE,45,6.0,7.0,94,0.18,,,0.24,Rainwise IP-100,2013-05-20 19:01:00,
2013-05-20 15:06:00,73.0,71.3,30.00,NE,45,5.0,9.0,94,0.06,,,0.24,Rainwise IP-100,2013-05-20 19:06:00,
2013-05-20 15:11:00,73.0,71.0,30.00,North,360,5.0,7.0,93,0.06,,,0.25,Rainwise IP-100,2013-05-20 19:11:00,
2013-05-20 15:16:00,73.0,71.0,30.01,North,360,5.0,6.0,93,0.06,,,0.25,Rainwise IP-100,2013-05-20 19:16:00,
2013-05-20 15:21:00,74.0,72.3,30.01,NE,45,6.0,7.0,94,0.00,,,0.26,Rainwise IP-100,2013-05-20 19:21:00,
2013-05-20 15:27:00,74.0,72.3,30.01,ENE,67,4.0,7.0,94,0.06,,,0.26,Rainwise IP-100,2013-05-20 19:27:00,
2013-05-20 15:32:00,74.0,71.7,30.00,East,90,3.0,9.0,92,0.06,,,0.26,Rainwise IP-100,2013-05-20 19:32:00,
2013-05-20 15:37:00,75.0,72.7,30.00,ESE,112,5.0,8.0,92,0.00,,,0.26,Rainwise IP-100,2013-05-20 19:37:00,
2013-05-20 15:42:00,75.0,73.3,30.00,East,90,6.0,9.0,94,0.00,,,0.26,Rainwise IP-100,2013-05-20 19:42:00,
2013-05-20 15:47:00,75.0,73.3,30.00,NE,45,8.0,11.0,94,0.12,,,0.28,Rainwise IP-100,2013-05-20 19:47:00,
2013-05-20 15:52:00,75.0,73.7,30.00,NE,45,10.0,10.0,95,0.18,,,0.29,Rainwise IP-100,2013-05-20 19:52:00,
2013-05-20 15:57:00,74.0,72.3,30.01,SE,135,6.0,10.0,94,0.06,,,0.30,Rainwise IP-100,2013-05-20 19:57:00,
2013-05-20 16:03:00,74.0,72.0,30.01,SE,135,4.0,8.0,93,0.24,,,0.34,Rainwise IP-100,2013-05-20 20:03:00,
2013-05-20 16:08:00,74.0,72.3,30.01,East,90,4.0,7.0,94,0.54,,,0.38,Rainwise IP-100,2013-05-20 20:08:00,
2013-05-20 16:13:00,74.0,72.7,30.01,NE,45,5.0,5.0,95,0.36,,,0.39,Rainwise IP-100,2013-05-20 20:13:00,
2013-05-20 16:18:00,74.0,73.0,30.00,ENE,67,6.0,7.0,96,0.12,,,0.40,Rainwise IP-100,2013-05-20 20:18:00,
2013-05-20 16:23:00,74.0,73.0,30.00,NE,45,7.0,9.0,96,0.12,,,0.41,Rainwise IP-100,2013-05-20 20:23:00,
2013-05-20 16:28:00,74.0,73.0,30.00,NE,45,7.0,10.0,96,0.12,,,0.43,Rainwise IP-100,2013-05-20 20:28:00,
2013-05-20 16:33:00,74.0,73.0,30.00,NE,45,7.0,9.0,96,0.12,,,0.43,Rainwise IP-100,2013-05-20 20:33:00,
2013-05-20 16:38:00,74.0,73.0,29.99,ENE,67,7.0,12.0,96,0.12,,,0.44,Rainwise IP-100,2013-05-20 20:38:00,
2013-05-20 16:44:00,74.0,73.0,29.99,East,90,7.0,11.0,96,0.06,,,0.44,Rainwise IP-100,2013-05-20 20:44:00,
2013-05-20 16:49:00,74.0,71.7,29.98,East,90,4.0,9.0,92,0.06,,,0.45,Rainwise IP-100,2013-05-20 20:49:00,
2013-05-20 16:54:00,75.0,72.7,29.97,South,180,4.0,11.0,92,0.06,,,0.45,Rainwise IP-100,2013-05-20 20:54:00,
2013-05-20 16:59:00,75.0,72.3,29.97,ESE,112,7.0,10.0,91,0.00,,,0.45,Rainwise IP-100,2013-05-20 20:59:00,
2013-05-20 17:04:00,75.0,72.3,29.97,South,180,7.0,9.0,91,0.00,,,0.45,Rainwise IP-100,2013-05-20 21:04:00,
2013-05-20 17:09:00,75.0,72.7,29.97,East,90,7.0,10.0,92,0.00,,,0.45,Rainwise IP-100,2013-05-20 21:09:00,
2013-05-20 17:14:00,75.0,72.3,29.97,SE,135,6.0,10.0,91,0.06,,,0.46,Rainwise IP-100,2013-05-20 21:14:00,
2013-05-20 17:20:00,75.0,71.7,29.97,SE,135,8.0,11.0,89,0.06,,,0.46,Rainwise IP-100,2013-05-20 21:20:00,
2013-05-20 17:25:00,75.0,71.7,29.97,SSE,157,4.0,11.0,89,0.00,,,0.46,Rainwise IP-100,2013-05-20 21:25:00,
2013-05-20 17:30:00,75.0,72.3,29.96,South,180,2.0,9.0,91,0.06,,,0.47,Rainwise IP-100,2013-05-20 21:30:00,
2013-05-20 17:35:00,75.0,72.3,29.96,South,180,8.0,9.0,91,0.06,,,0.47,Rainwise IP-100,2013-05-20 21:35:00,
2013-05-20 17:40:00,75.0,72.3,29.96,South,180,6.0,10.0,91,0.00,,,0.47,Rainwise IP-100,2013-05-20 21:40:00,
2013-05-20 17:45:00,75.0,72.3,29.96,South,180,2.0,7.0,91,0.00,,,0.47,Rainwise IP-100,2013-05-20 21:45:00,
2013-05-20 17:50:00,75.0,72.7,29.96,East,90,2.0,6.0,92,0.00,,,0.47,Rainwise IP-100,2013-05-20 21:50:00,
2013-05-20 17:55:00,75.0,72.7,29.96,East,90,4.0,7.0,92,0.00,,,0.47,Rainwise IP-100,2013-05-20 21:55:00,
2013-05-20 18:01:00,75.0,72.3,29.96,East,90,5.0,9.0,91,0.00,,,0.47,Rainwise IP-100,2013-05-20 22:01:00,
2013-05-20 18:06:00,75.0,72.3,29.96,ESE,112,2.0,7.0,91,0.00,,,0.47,Rainwise IP-100,2013-05-20 22:06:00,
2013-05-20 18:11:00,75.0,72.3,29.96,East,90,0.0,4.0,91,0.00,,,0.47,Rainwise IP-100,2013-05-20 22:11:00,
2013-05-20 18:16:00,75.0,72.7,29.96,NE,45,4.0,5.0,92,0.00,,,0.47,Rainwise IP-100,2013-05-20 22:16:00,
2013-05-20 18:21:00,75.0,73.0,29.96,ENE,67,4.0,7.0,93,0.00,,,0.47,Rainwise IP-100,2013-05-20 22:21:00,
2013-05-20 18:26:00,76.0,74.3,29.96,ENE,67,3.0,6.0,95,0.00,,,0.47,Rainwise IP-100,2013-05-20 22:26:00,
2013-05-20 18:31:00,76.0,74.0,29.96,ENE,67,4.0,7.0,94,0.00,,,0.47,Rainwise IP-100,2013-05-20 22:31:00,
2013-05-20 18:37:00,76.0,74.3,29.96,East,90,3.0,6.0,95,0.00,,,0.47,Rainwise IP-100,2013-05-20 22:37:00,
2013-05-20 18:42:00,76.0,74.3,29.95,ENE,67,4.0,6.0,95,0.00,,,0.47,Rainwise IP-100,2013-05-20 22:42:00,
2013-05-20 18:47:00,76.0,74.3,29.95,ENE,67,5.0,7.0,95,0.06,,,0.48,Rainwise IP-100,2013-05-20 22:47:00,
2013-05-20 18:52:00,76.0,74.3,29.95,NE,45,5.0,9.0,96,0.06,,,0.48,Rainwise IP-100,2013-05-20 22:52:00,
2013-05-20 18:57:00,76.0,74.7,29.95,NE,45,5.0,9.0,97,0.00,,,0.48,Rainwise IP-100,2013-05-20 22:57:00,
2013-05-20 19:02:00,76.0,74.3,29.94,East,90,0.0,7.0,95,0.00,,,0.48,Rainwise IP-100,2013-05-20 23:02:00,
2013-05-20 19:07:00,76.0,74.3,29.95,SE,135,2.0,6.0,95,0.00,,,0.48,Rainwise IP-100,2013-05-20 23:07:00,
2013-05-20 19:12:00,76.0,73.3,29.95,NE,45,4.0,9.0,92,0.00,,,0.48,Rainwise IP-100,2013-05-20 23:12:00,
2013-05-20 19:18:00,76.0,73.7,29.95,SE,135,6.0,8.0,93,0.00,,,0.48,Rainwise IP-100,2013-05-20 23:18:00,
2013-05-20 19:23:00,76.0,73.7,29.95,East,90,10.0,15.0,93,0.00,,,0.48,Rainwise IP-100,2013-05-20 23:23:00,
2013-05-20 19:28:00,77.0,74.3,29.95,ENE,67,5.0,15.0,91,0.00,,,0.48,Rainwise IP-100,2013-05-20 23:28:00,
2013-05-20 19:33:00,77.0,73.7,29.96,East,90,10.0,15.0,89,0.00,,,0.48,Rainwise IP-100,2013-05-20 23:33:00,
2013-05-20 19:38:00,77.0,73.7,29.96,East,90,3.0,12.0,89,0.00,,,0.48,Rainwise IP-100,2013-05-20 23:38:00,
2013-05-20 19:43:00,77.0,74.0,29.96,NE,45,2.0,11.0,90,0.00,,,0.48,Rainwise IP-100,2013-05-20 23:43:00,
2013-05-20 19:48:00,77.0,73.3,29.97,NE,45,7.0,11.0,88,0.00,,,0.48,Rainwise IP-100,2013-05-20 23:48:00,
2013-05-20 19:54:00,77.0,73.0,29.97,East,90,7.0,15.0,87,0.00,,,0.48,Rainwise IP-100,2013-05-20 23:54:00,
2013-05-20 19:59:00,77.0,72.7,29.97,NE,45,10.0,16.0,86,0.00,,,0.48,Rainwise IP-100,2013-05-20 23:59:00,
2013-05-20 20:04:00,77.0,72.3,29.98,East,90,7.0,17.0,85,0.00,,,0.48,Rainwise IP-100,2013-05-21 00:04:00,
2013-05-20 20:09:00,77.0,72.3,29.98,ENE,67,13.0,15.0,85,0.00,,,0.48,Rainwise IP-100,2013-05-21 00:09:00,
2013-05-20 20:14:00,78.0,73.0,29.99,NE,45,8.0,16.0,85,0.00,,,0.48,Rainwise IP-100,2013-05-21 00:14:00,
2013-05-20 20:19:00,78.0,72.7,29.99,NE,45,11.0,18.0,84,0.00,,,0.48,Rainwise IP-100,2013-05-21 00:19:00,
2013-05-20 20:24:00,78.0,73.0,29.99,NE,45,12.0,16.0,85,0.00,,,0.48,Rainwise IP-100,2013-05-21 00:24:00,
2013-05-20 20:29:00,78.0,72.7,30.00,East,90,11.0,16.0,84,0.00,,,0.48,Rainwise IP-100,2013-05-21 00:29:00,
2013-05-20 20:35:00,78.0,72.7,30.00,ENE,67,9.0,16.0,83,0.00,,,0.48,Rainwise IP-100,2013-05-21 00:35:00,
2013-05-20 20:40:00,76.0,70.5,30.00,SE,135,5.0,16.0,83,0.00,,,0.48,Rainwise IP-100,2013-05-21 00:40:00,
2013-05-20 20:45:00,75.0,69.7,30.01,SSE,157,8.0,16.0,83,0.00,,,0.48,Rainwise IP-100,2013-05-21 00:45:00,
2013-05-20 20:50:00,73.0,70.5,30.00,South,180,17.0,23.0,91,0.36,,,0.55,Rainwise IP-100,2013-05-21 00:50:00,
2013-05-20 20:55:00,72.0,69.7,29.99,South,180,17.0,28.0,92,1.56,,,0.75,Rainwise IP-100,2013-05-21 00:55:00,
2013-05-20 21:00:00,72.0,71.0,29.99,SE,135,15.0,25.0,96,1.80,,,0.85,Rainwise IP-100,2013-05-21 01:00:00,
2013-05-20 21:05:00,72.0,71.0,30.00,SW,225,5.0,18.0,96,0.84,,,0.88,Rainwise IP-100,2013-05-21 01:05:00,
2013-05-20 21:11:00,71.0,69.7,30.00,South,180,7.0,10.0,96,0.30,,,0.89,Rainwise IP-100,2013-05-21 01:11:00,
2013-05-20 21:16:00,71.0,70.0,30.00,South,180,7.0,12.0,97,0.12,,,0.91,Rainwise IP-100,2013-05-21 01:16:00,
2013-05-20 21:21:00,71.0,70.0,30.00,SW,225,2.0,12.0,97,0.18,,,0.92,Rainwise IP-100,2013-05-21 01:21:00,
2013-05-20 21:26:00,72.0,71.3,30.02,NE,45,12.0,19.0,97,0.12,,,0.93,Rainwise IP-100,2013-05-21 01:26:00,
2013-05-20 21:31:00,72.0,71.0,30.02,East,90,6.0,19.0,96,0.12,,,0.94,Rainwise IP-100,2013-05-21 01:31:00,
2013-05-20 21:36:00,71.0,69.7,30.02,East,90,10.0,22.0,96,0.24,,,0.97,Rainwise IP-100,2013-05-21 01:36:00,
2013-05-20 21:41:00,70.0,69.3,30.02,SSE,157,11.0,18.0,97,0.48,,,1.04,Rainwise IP-100,2013-05-21 01:41:00,
2013-05-20 21:46:00,70.0,69.0,30.02,SSE,157,8.0,17.0,96,1.14,,,1.16,Rainwise IP-100,2013-05-21 01:46:00,
2013-05-20 21:52:00,69.0,67.0,30.01,SE,135,10.0,17.0,95,2.10,,,1.41,Rainwise IP-100,2013-05-21 01:52:00,
2013-05-20 21:57:00,70.0,69.3,30.01,SSE,157,6.0,11.0,97,2.52,,,1.60,Rainwise IP-100,2013-05-21 01:57:00,
2013-05-20 22:02:00,70.0,69.3,30.01,South,180,6.0,12.0,97,1.62,,,1.69,Rainwise IP-100,2013-05-21 02:02:00,
2013-05-20 22:07:00,70.0,69.3,30.02,South,180,5.0,11.0,97,0.66,,,1.72,Rainwise IP-100,2013-05-21 02:07:00,
2013-05-20 22:12:00,70.0,69.3,30.01,SSW,202,1.0,9.0,97,0.18,,,1.72,Rainwise IP-100,2013-05-21 02:12:00,
2013-05-20 22:17:00,70.0,69.7,30.02,SSE,157,4.0,6.0,98,0.06,,,1.73,Rainwise IP-100,2013-05-21 02:17:00,
2013-05-20 22:22:00,70.0,69.7,30.02,SE,135,4.0,7.0,98,0.12,,,1.74,Rainwise IP-100,2013-05-21 02:22:00,
2013-05-20 22:28:00,71.0,70.5,30.02,ESE,112,2.0,7.0,99,0.12,,,1.75,Rainwise IP-100,2013-05-21 02:28:00,
2013-05-20 22:33:00,71.0,70.5,30.02,SE,135,1.0,6.0,99,0.06,,,1.76,Rainwise IP-100,2013-05-21 02:33:00,
2013-05-20 22:38:00,71.0,70.0,30.01,South,180,0.0,6.0,98,0.06,,,1.76,Rainwise IP-100,2013-05-21 02:38:00,
2013-05-20 22:43:00,71.0,70.5,30.01,SE,135,2.0,5.0,99,0.00,,,1.76,Rainwise IP-100,2013-05-21 02:43:00,
2013-05-20 22:48:00,71.0,70.5,30.01,SE,135,6.0,6.0,99,0.00,,,1.76,Rainwise IP-100,2013-05-21 02:48:00,
2013-05-20 22:53:00,72.0,71.3,30.01,ESE,112,7.0,7.0,98,0.00,,,1.76,Rainwise IP-100,2013-05-21 02:53:00,
2013-05-20 22:58:00,72.0,71.7,30.01,SSE,157,4.0,8.0,99,0.00,,,1.76,Rainwise IP-100,2013-05-21 02:58:00,
2013-05-20 23:03:00,72.0,71.7,30.01,SE,135,12.0,12.0,99,0.00,,,1.76,Rainwise IP-100,2013-05-21 03:03:00,
2013-05-20 23:09:00,72.0,71.3,30.01,ESE,112,11.0,21.0,98,0.06,,,1.77,Rainwise IP-100,2013-05-21 03:09:00,
2013-05-20 23:14:00,72.0,71.3,30.01,SE,135,7.0,19.0,98,0.06,,,1.77,Rainwise IP-100,2013-05-21 03:14:00,
2013-05-20 23:19:00,72.0,71.3,30.02,SSE,157,8.0,16.0,97,0.00,,,1.77,Rainwise IP-100,2013-05-21 03:19:00,
2013-05-20 23:24:00,72.0,71.0,30.02,East,90,10.0,15.0,96,0.00,,,1.77,Rainwise IP-100,2013-05-21 03:24:00,
2013-05-20 23:29:00,72.0,71.3,30.02,SSW,202,7.0,14.0,97,0.00,,,1.77,Rainwise IP-100,2013-05-21 03:29:00,
2013-05-20 23:34:00,72.0,71.0,30.03,South,180,6.0,12.0,96,0.00,,,1.77,Rainwise IP-100,2013-05-21 03:34:00,
2013-05-20 23:39:00,72.0,71.3,30.03,SSE,157,4.0,10.0,97,0.00,,,1.77,Rainwise IP-100,2013-05-21 03:39:00,
2013-05-20 23:45:00,72.0,71.0,30.02,South,180,6.0,10.0,96,0.00,,,1.77,Rainwise IP-100,2013-05-21 03:45:00,
2013-05-20 23:50:00,72.0,70.5,30.02,SE,135,4.0,10.0,95,0.00,,,1.77,Rainwise IP-100,2013-05-21 03:50:00,
2013-05-20 23:55:00,72.0,70.0,30.02,ESE,112,6.0,10.0,94,0.00,,,1.77,Rainwise IP-100,2013-05-21 03:55:00,